Location: Bittkow
(50.3000°N, 19.0000°E)
Time: 13:09:51
(UTC+00:00)

Cosmos 1707 Rocket - Pass Details

Date: 19 September 2020
Orbit: 606 x 630 km, 82.5° (Epoch: 22 October)

Event Time Altitude Azimuth Distance (km) Brightness Sun altitude
Rises 03:23:57 0° 191° (S) 2,851 6.7 -10.6°
Reaches altitude 10° 03:26:09 10° 192° (SSW) 1,953 5.9 -10.3°
Maximum altitude 03:30:29 81° 280° (W) 622 3.5 -9.6°
Drops below altitude 10° 03:34:51 10° 8° (N) 1,976 6.4 -8.9°
Sets 03:37:06 0° 10° (N) 2,889 7.3 -8.6°
